CUBESAT XI 5

Satellite information

Favourite Embed

Satellite Type and Status

PAYLOADIN ORBIT

Key statistics

Satellite CUBESAT XI 5 at a glance.

Uptime

7303

Days in orbit

Revolutions

≈ 14.7

Per day

Orbit

SSO

Sun Synchronous Orbit

Inclination

98.3

Latest

Satellite identification and parameters

Extended collection of information and parameters for CUBESAT XI 5.

Object identification

Identified? True

Debris? False

Object name: CUBESAT XI 5

International designator: 2005-043F

Object number (NORAD): 28895

Object ID (CCSDS): 28895

Country: JAPAN (JPN)

Current information (Y/N): Y

RCS size: SMALL

Orbital parameters

Period: 97.853 minutes

Inclination: 98.2695 deg

SMA: 7034.112 km

Apoapsis: 665.529 km

Periapsis: 646.425 km

RAAN: 84.1028 deg

Eccentricy: 0.0013579

Argument of periapsis: 229.23 deg

Mean anomaly: 130.7729 deg

Mean motion: 14.71596849 rev/day

Mean motion (dot): 0.00002922 rev/day2

B* drag term: 0.00047758571 1/REarth

Two-line elements (TLE)

Creation date: Oct. 25, 2025, 3:11 a.m.

Reference frame: TEME

Reference center: EARTH

Epoch: Oct. 24, 2025, 7:56 p.m. UTC

TLE line 0: 0 CUBESAT XI 5

TLE line 1: 1 28895U 05043F 25297.83082513 .00002922 00000-0 47759-3 0 9999

TLE line 2: 2 28895 98.2695 84.1028 0013579 229.2300 130.7729 14.71596849 67128

Live tracking on map

Real-time ground track for satellite CUBESAT XI 5.

In-orbit conjunctions

There are no conjunctions computed for CUBESAT XI 5, at the moment. Check back to stay up to date, as we update our databases every day.

Go to all conjunctions

Associated space launch

Civilian surveillance satellite.

CUBESAT XI 5 was lifted into orbit during the mission ‘Kosmos-3M | Beijing-1’, on board a Kosmos-3M space rocket.

The launch took place on Oct. 27, 2005, 6:52 a.m. from 132/1 (132L).

For more information about the launch, click the button.

Launch to space Kosmos-3M | Beijing-1
Kosmos-3M | Beijing-1

Agency: N/A

Status: Launch Successful

Launch date: Oct. 27, 2005, 6:52 a.m. UTC

Rocket: Kosmos-3M

Launch pad: 132/1 (132L)

Location: Plesetsk Cosmodrome, Russian Federation

...

Latest news about this satellite

There are no fresh news available about this satellite. Check back as we update our databases every day.


Newsletter sign-up

Weekly statistics, charts and insights to help you stay on top of the space industry.